{"data":{"norad_id":63300,"epoch":"2026-05-25T03:24:28.497600Z","epoch_age_seconds":62932,"freshness":"FRESH","line1":"1 63300U 25056A   26145.14199650  .00001270  00000+0  20809-3 0  9994","line2":"2 63300  97.9012 269.6779 0001156 173.8641 186.2581 14.72405799 63739","mean_motion":14.72405799,"eccentricity":0.0001156,"inclination_deg":97.9012,"raan_deg":269.6779,"arg_perigee_deg":173.8641,"mean_anomaly_deg":186.2581,"bstar":0.00020809,"rev_number":6373,"period_min":97.799125823736,"perigee_km":652.58546216067,"apogee_km":654.21115312379,"semimajor_km":7031.5353076422,"source":"CELESTRAK","updated_at":"2026-05-25T13:38:03.647405Z"}}